Weather Roundup
Issued by NWS Chicago, IL

Home | Current Version | Previous Version | Graphics & Text | Print | Product List | Glossary On
Versions: 1 2 3 4 5 6 7 8 9 10 11 12 13 14 15 16 17 18 19 20 21 22 23 24 25 26 27 28 29 30 31 32 33 34 35 36 37 38 39 40 41 42 43 44 45 46 47 48 49 50
000
NZUS59 KLOT 231200
HRRLOT

CHICAGO AREA WEATHER ROUNDUP
NATIONAL WEATHER SERVICE CHICAGO/ROMEOVILLE IL
600 AM CST SUN NOV 23 2014

NOTE: "FAIR" INDICATES FEW OR NO CLOUDS BELOW 12,000 FEET WITH NO
SIGNIFICANT WEATHER AND/OR OBSTRUCTIONS TO VISIBILITY.

* THESE STATIONS ARE NOT UNDER NWS QUALITY CONTROL. THEY ALSO MAY NOT
  REPORT WEATHER SUCH AS PRECIPITATION OR FOG.

ILZ005-006-012>014-019>023-231300-
NORTHEAST ILLINOIS

CITY           SKY/WX    TMP DP  RH WIND       PRES   REMARKS
OHARE          CLOUDY    48  42  80 S9        29.74F
6HR MIN TEMP:  48; 6HR MAX TEMP:  52;

MIDWAY         CLOUDY    51  43  74 S10       29.76F
6HR MIN TEMP:  50; 6HR MAX TEMP:  52;

AURORA         MOCLDY    46  41  82 S9        29.75S
6HR MIN TEMP:  45; 6HR MAX TEMP:  52;

WAUKEGAN       CLOUDY    49  44  83 S10       29.72F
6HR MIN TEMP:  49; 6HR MAX TEMP:  50; 6HR PCP: TRACE;

DUPAGE AIRPORT MOCLDY    47  42  83 S10       29.74F
6HR MIN TEMP:  47; 6HR MAX TEMP:  50;

WHEELING       CLOUDY    48  43  82 S9        29.76F
6HR MIN TEMP:  48; 6HR MAX TEMP:  52;

NORTHERLY IS     N/A     50  41  71 SW12        N/A
$$

WIZ051-052-058>065-066-070>072-231300-
SOUTHEAST WISCONSIN

CITY           SKY/WX    TMP DP  RH WIND       PRES   REMARKS
MILWAUKEE      CLOUDY    49  47  93 S13       29.71F FOG
6HR MIN TEMP:  46; 6HR MAX TEMP:  50;

KENOSHA*       CLOUDY    50  46  86 S13       29.72F
RACINE*        CLOUDY    50  47  89 S12       29.73F
$$

INZ001>003-010>013-019-020-231300-
NORTHWEST INDIANA

CITY           SKY/WX    TMP DP  RH WIND       PRES   REMARKS
GARY*          MOCLDY    50  43  76 S12G28    29.79F
MICHIGAN CITY* NOT AVBL
RENSSELAER*    NOT AVBL
$$

LMZ740>746-231300-
SOUTHERN LAKE MICHIGAN

STATION/POSITION TIME  SKY/WX   TEMP WIND        PRES    VSBY
                                AIR  DIR/SP/G
                 (UTC)          (F)  (DEG/KT/KT) (MB)    (MI)
HARRISON CRIB    1100            49  180/ 22/ 24   N/A
BURNHAM HARBOR   1200            50  180/ 15/ 17   N/A
CALUMET HARBOR   1100            50  170/ 12/ 17 1006.9F
BURNS HARBOR     NOT AVBL
MICHIGAN CITY    1100            49  140/ 15/ 22   N/A
$$

ABBREVIATIONS USED IN REMARKS
   TC - TEMPERATURE IN CELSIUS
  WCI - WIND CHILL INDEX
   HX - HEAT INDEX
  VSB - VISIBILITY
$$


USA.gov is the U.S. government's official web portal to all federal, state and local government web resources and services.